Millville, NJ

10:39 PM EDT on May 27, 2017 (GMT -0400)
Millville Municipal

Weather History for KMIV - January, 2014

Change the Weather History Date:

Wednesday, January 29, 2014

  Actual Average Record
Temperature  
Mean Temperature 10 °F -  
Max Temperature 19 °F 41 °F 71 °F (2002)
Min Temperature 1 °F 22 °F -5 °F (1961)
Degree Days  
Heating Degree Days 55    
Moisture  
Dew Point 4 °F    
Average Humidity 73    
Maximum Humidity 88    
Minimum Humidity 40    
Precipitation  
Precipitation 0.00 in - - ()
Sea Level Pressure  
Sea Level Pressure 30.23 in    
Wind  
Wind Speed 7 mph (NW)    
Max Wind Speed 14 mph    
Max Gust Speed 20 mph    
Visibility 6 miles    
Events Snow    
Averages and records for this station are not official NWS values.
T = Trace of Precipitation, MM = Missing Value Source: NWS Daily Summary

Daily Weather History Graph

Daily Weather History Graph

Search for Another Location

Airport or City:

Trip Planner

Search our weather history database for the weather conditions in past years. The results will help you decide how hot, cold, wet, or windy it might be!

Date:

Astronomy

Jan. 29, 2014 Rise Set
Actual Time 7:10 AM EST 5:17 PM EST
Civil Twilight 6:41 AM EST 5:45 PM EST
Nautical Twilight 6:09 AM EST 6:18 PM EST
Astronomical Twilight 5:37 AM EST 6:49 PM EST
Moon 5:44 AM EST (1/29) 4:13 PM EST (1/29)
Length of Visible Light 11h 04m
Length of Day
10h 07m
Waning Crescent, 2% of the Moon is Illuminated
Jan 29
Waning Crescent
Jan 30
New
Feb 6
First Quarter
Feb 14
Full
Feb 22
Last Quarter

Hourly Weather History & Observations

Time (EST) Temp. Windchill Dew Point Humidity Pressure Visibility Wind Dir Wind Speed Gust Speed Precip Events Conditions
12:35 AM 12.0 °F 1.5 °F 9.0 °F 88% 30.23 in 1.5 mi NNW 6.9 mph - 0.00 in Snow Light Snow
12:43 AM 12.0 °F 1.5 °F 9.0 °F 88% 30.23 in 2.0 mi NNW 6.9 mph - 0.00 in Snow Light Snow
12:54 AM 12.0 °F 0.5 °F 8.1 °F 84% 30.24 in 2.0 mi NW 8.1 mph - 0.00 in Snow Light Snow
1:02 AM 12.0 °F -0.4 °F 8.1 °F 84% 30.23 in 1.5 mi NNW 9.2 mph - 0.00 in Snow Light Snow
1:46 AM 12.0 °F -0.4 °F 8.1 °F 84% 30.22 in 1.8 mi NNW 9.2 mph - 0.00 in Snow Light Snow
1:54 AM 12.0 °F 1.5 °F 8.1 °F 84% 30.23 in 2.0 mi NNW 6.9 mph - 0.00 in Snow Light Snow
2:07 AM 12.0 °F 2.7 °F 9.0 °F 88% 30.21 in 1.5 mi NNW 5.8 mph - 0.00 in Snow Light Snow
2:39 AM 12.0 °F -0.4 °F 8.1 °F 84% 30.21 in 2.0 mi NNW 9.2 mph - 0.00 in Snow Light Snow
2:54 AM 10.9 °F -0.8 °F 8.1 °F 88% 30.20 in 2.0 mi NNW 8.1 mph - 0.00 in Snow Light Snow
3:33 AM 10.9 °F -0.8 °F 8.1 °F 88% 30.18 in 3.0 mi NNW 8.1 mph - 0.00 in Snow Light Snow
3:40 AM 10.9 °F 0.2 °F 8.1 °F 88% 30.18 in 2.5 mi NNW 6.9 mph - 0.00 in Snow Light Snow
3:54 AM 10.9 °F 0.2 °F 8.1 °F 88% 30.18 in 2.5 mi NNW 6.9 mph - 0.00 in Snow Light Snow
4:14 AM 10.9 °F 1.4 °F 8.1 °F 88% 30.18 in 1.8 mi NNW 5.8 mph - 0.00 in Snow Light Snow
4:21 AM 10.9 °F 1.4 °F 8.1 °F 88% 30.18 in 2.0 mi NNW 5.8 mph - 0.00 in Snow Light Snow
4:32 AM 10.9 °F 4.7 °F 8.1 °F 88% 30.18 in 3.0 mi NNW 3.5 mph - 0.00 in Snow Light Snow
4:54 AM 12.0 °F 4.1 °F 8.1 °F 84% 30.19 in 2.5 mi NW 4.6 mph - 0.00 in Snow Light Snow
5:25 AM 12.0 °F 4.1 °F 9.0 °F 88% 30.19 in 2.5 mi NW 4.6 mph - 0.00 in Snow Light Snow
5:54 AM 12.0 °F 4.1 °F 9.0 °F 88% 30.20 in 2.5 mi NW 4.6 mph - 0.00 in Snow Light Snow
6:05 AM 12.0 °F 1.5 °F 9.0 °F 88% 30.20 in 3.0 mi NW 6.9 mph - 0.00 in Snow Light Snow
6:54 AM 10.9 °F 1.4 °F 7.0 °F 84% 30.21 in 10.0 mi NW 5.8 mph - 0.00 in   Mostly Cloudy
7:54 AM 10.9 °F 0.2 °F 5.0 °F 77% 30.23 in 6.0 mi NW 6.9 mph - N/A   Haze
8:54 AM 10.9 °F -2.6 °F 3.0 °F 70% 30.25 in 10.0 mi WNW 10.4 mph - N/A   Clear
9:54 AM 12.9 °F -0.9 °F 1.0 °F 59% 30.25 in 10.0 mi NNW 11.5 mph 17.3 mph 0.00 in   Clear
10:54 AM 15.1 °F 1.1 °F -0.9 °F 49% 30.26 in 10.0 mi WNW 12.7 mph - 0.00 in   Clear
11:54 AM 16.0 °F 1.7 °F -4.0 °F 41% 30.26 in 10.0 mi WNW 13.8 mph 19.6 mph 0.00 in   Clear
12:54 PM 18.0 °F 4.2 °F -2.0 °F 41% 30.23 in 10.0 mi NW 13.8 mph 19.6 mph 0.00 in   Clear
1:54 PM 19.0 °F 6.8 °F -2.0 °F 40% 30.22 in 10.0 mi WNW 11.5 mph - 0.00 in   Clear
2:54 PM 19.0 °F 6.8 °F -0.9 °F 42% 30.22 in 10.0 mi WNW 11.5 mph - N/A   Clear
3:54 PM 19.0 °F 6.1 °F -2.0 °F 40% 30.22 in 10.0 mi West 12.7 mph - N/A   Clear
4:54 PM 16.0 °F 3.6 °F -2.0 °F 45% 30.24 in 10.0 mi West 10.4 mph - N/A   Clear
5:54 PM 14.0 °F 6.5 °F -2.9 °F 47% 30.27 in 10.0 mi West 4.6 mph - N/A   Clear
6:54 PM 14.0 °F 3.9 °F -0.9 °F 52% 30.30 in 10.0 mi West 6.9 mph - N/A   Clear
7:54 PM 14.0 °F 6.5 °F -0.9 °F 52% 30.31 in 10.0 mi West 4.6 mph - N/A   Clear
8:54 PM 8.1 °F - -0.9 °F 67% 30.32 in 10.0 mi Calm Calm - N/A   Clear
9:54 PM 7.0 °F - -0.9 °F 70% 30.32 in 10.0 mi Calm Calm - N/A   Clear
10:54 PM 1.0 °F - -2.9 °F 83% 30.35 in 10.0 mi Calm Calm - N/A   Clear
11:54 PM 1.9 °F -5.6 °F -2.9 °F 80% 30.37 in 10.0 mi SW 3.5 mph - N/A   Clear